Regional Weather Roundup
Issued by NWS Midland/Odessa, TX

Skip options and go directly to product.
Home | Oldest Version | Previous Version | Current Version | All | Graphics & Text | Save Text | Print | Product List | Glossary On

Skip product version selection by date and time.   
839
ASUS44 KMAF 251610
RWRMAF
MIDLAND AREA WEATHER ROUNDUP
NATIONAL WEATHER SERVICE MIDLAND TX
1100 AM CDT THU AUG 25 2016

...IN SOUTHWEST TEXAS AND SOUTHEAST NEW MEXICO...

CITY           SKY/WX    TMP DP  RH WIND       PRES   REMARKS
ALPINE         CLOUDY    69  58  66 SW5       30.28R
ANDREWS        NOT AVBL
ARTESIA        MOSUNNY   70  68  94 N9        30.19S
BIG SPRING     MOSUNNY   81  70  70 S14       30.16S
CARLSBAD       CLOUDY    71  64  78 NW16      30.16R
DRYDEN           N/A     79  69  71 MISG      30.11R
FORT STOCKTON  SUNNY     82  60  47 S13G20    30.14R
GUAD PASS      CLOUDY    67  63  87 CALM      30.28R
HOBBS          CLOUDY    68  68 100 S6        30.19R
MARFA          CLOUDY   N/A N/A N/A SW5       30.27R
MIDLAND AIRPK  SUNNY     80  66  62 S12       30.15R
MIDLAND INTL   CLOUDY    79  66  64 S12       30.14R
ODESSA         CLOUDY    79  66  64 S13       30.15R
PECOS          PTSUNNY   73  67  81 CALM      30.12S
PRESIDIO       NOT AVBL
SEMINOLE       CLOUDY    73  66  79 S8        30.17S
SNYDER           N/A     79  68  69 S12       30.15S
WINK           MOSUNNY   76  67  73 SE9       30.12R
$$
...OTHER STATIONS IN TEXAS...

CITY           SKY/WX    TMP DP  RH WIND       PRES   REMARKS
ABILENE        SUNNY     83  65  54 S16       30.13S
AMARILLO       PTSUNNY   69  61  75 N6        30.21R
AUSTIN         PTSUNNY   84  73  69 S9        30.10S
BROWNSVILLE    MOSUNNY   88  73  61 S8        30.04S
CORPUS CHRISTI PTSUNNY   89  76  65 S6        30.05F HX 100
DALLAS FTW     MOSUNNY   88  68  51 SW12      30.10R
DEL RIO        PTSUNNY   80  71  74 SE10      30.07S
EL PASO        PTSUNNY   74  54  49 N10       30.17R
HOUSTON INT    PTSUNNY   87  75  67 VRB3      30.08S
LUBBOCK        CLOUDY    73  67  81 S9        30.17S
SAN ANGELO     SUNNY     82  68  62 SE8       30.12S
SAN ANTONIO    MOSUNNY   83  70  64 S9        30.11R
WACO           SUNNY     85  74  69 S9        30.11S
WICHITA FALLS  NOT AVBL
$$
...OTHER LOCATIONS IN NEW MEXICO...

CITY           SKY/WX    TMP DP  RH WIND       PRES   REMARKS
ALAMAGORDO     MOSUNNY   72  54  53 CALM      30.20R
ALBUQUERQUE    PTSUNNY   67  49  52 N5        30.27S
CANNON AFB     MOSUNNY   69  59  70 N6        30.23R
CLOVIS         CLOUDY    68  57  68 NE9       30.24R
HOLLOMAN AFB   CLOUDY    69  57  65 W5        30.18R
ROSWELL        MOSUNNY   73  59  61 N10       30.19R
RUIDOSO          N/A     63  50  63 E5        30.37R
SANTA FE       CLOUDY    65  48  54 NE6       30.32S
TRUTH OR CONSE SUNNY     73  50  44 NE6       30.22S
TUCUMCARI      SUNNY     68  58  70 E7        30.23R
$$

USA.gov is the U.S. government's official web portal to all federal, state and local government web resources and services.